Theta_e
321 321 321 320 320 320 321 321 320 320 320 321 320 320 318 317 312 307 300 302 303 305 305 304 304 302 302 301 301 299 298 297 295 295 295 295 296 298 300 301 302 303 305 305 307 307 306 306 305 305 304 303 302 303 302 301 301 300 300 300 300 301 300 300 300 298 299 299 298 298 298 298 298 298
321 320 320 320 319 320 320 320 320 320 320 320 320 320 320 319 314 312 309 307 305 306 303 305 306 302 302 302 300 299 297 295 294 295 294 294 295 297 298 300 301 303 303 305 307 307 306 305 305 304 303 302 302 302 303 302 301 301 301 301 301 300 300 300 299 299 298 298 298 298 298 298 298 298
320 319 319 319 319 320 319 320 320 320 320 320 320 319 319 318 317 315 312 307 305 310 304 303 306 302 301 299 297 296 297 294 294 294 294 294 294 295 296 297 300 301 302 302 303 305 305 305 305 304 303 302 301 302 302 301 301 300 300 300 300 299 299 298 298 297 297 297 297 297 297 297 297 297
320 319 318 318 319 319 319 319 319 319 319 319 318 318 318 317 317 315 312 309 307 305 307 304 302 299 297 296 295 294 295 295 293 294 294 294 293 294 295 295 297 299 300 301 301 301 302 303 304 303 303 302 302 302 302 301 300 300 300 300 299 298 298 297 297 297 296 296 296 296 296 296 296 297
319 318 317 317 318 319 318 318 318 318 318 318 318 318 317 316 316 314 311 308 307 299 295 299 297 296 296 294 295 294 293 293 292 293 294 294 293 292 292 293 294 296 298 299 299 300 300 300 300 300 301 301 301 300 301 300 299 299 299 298 298 297 297 297 296 297 296 296 296 296 295 295 295 296
318 317 316 316 316 317 316 316 316 316 316 316 316 315 314 314 312 312 311 308 307 306 290 293 295 294 295 292 294 293 292 292 291 291 291 292 291 291 291 291 291 294 295 296 297 298 299 298 297 298 298 298 297 297 298 298 297 297 297 296 295 296 296 296 296 296 295 295 295 295 295 295 295 295
316 315 315 315 316 317 315 315 315 315 315 314 314 313 312 311 311 310 311 309 304 304 300 296 292 292 292 294 293 293 294 292 291 289 289 289 290 291 290 290 291 294 294 295 295 297 297 297 297 297 297 296 295 295 296 296 296 296 295 295 295 295 294 295 294 294 294 294 294 294 294 294 294 294
315 314 314 314 315 315 314 314 314 315 314 313 312 311 310 309 309 309 308 309 307 302 301 290 294 292 291 291 290 292 290 289 289 289 288 289 289 289 290 290 290 292 295 294 294 295 295 296 296 296 296 295 295 295 295 295 294 294 294 294 294 293 293 293 293 293 292 293 293 294 293 293 293 294
315 315 314 315 315 315 313 313 313 313 312 311 311 310 310 307 308 306 305 304 302 300 299 294 290 289 289 289 289 289 288 287 287 287 287 287 287 288 289 289 289 291 293 293 293 293 294 294 294 295 295 294 294 294 294 294 294 293 293 293 293 292 292 292 292 292 292 291 292 292 292 293 293 293
316 315 315 315 315 314 313 312 313 312 310 310 308 307 306 304 302 300 297 296 297 298 299 295 289 288 288 286 286 288 288 286 285 285 286 287 287 286 286 287 288 289 288 288 289 290 291 292 293 293 294 294 294 294 294 293 293 293 293 293 292 292 291 291 291 291 291 291 291 291 291 291 292 292
316 316 316 315 315 314 314 313 312 311 307 306 304 304 304 300 299 297 296 295 295 295 295 292 293 289 288 287 285 286 287 286 286 285 284 284 286 286 285 285 287 287 287 289 289 289 288 289 289 290 292 293 293 293 293 293 292 292 292 292 292 291 291 291 291 291 291 290 290 290 290 291 291 291
316 316 316 316 315 315 314 313 313 311 307 305 302 301 300 297 296 296 295 294 295 295 294 294 292 289 287 286 285 285 285 284 284 286 286 286 285 285 285 286 285 286 286 285 285 288 288 288 288 290 290 291 292 292 292 292 291 290 291 291 291 291 291 290 290 290 289 289 290 290 290 290 290 291
315 315 315 315 315 312 303 302 304 304 304 306 302 298 297 296 295 294 293 294 294 293 293 292 291 288 287 286 284 283 283 284 287 286 286 286 287 286 284 285 286 286 284 283 283 284 284 283 283 284 284 286 288 289 290 289 289 290 290 290 290 291 290 290 289 289 289 289 289 290 290 290 289 289
309 312 313 311 301 300 298 298 299 300 299 300 304 303 299 297 296 294 293 293 293 293 292 293 293 288 289 287 286 285 286 287 287 286 286 285 286 285 285 285 285 286 285 283 283 284 284 283 282 283 284 285 286 285 285 285 286 287 289 290 290 290 290 290 289 289 289 289 289 289 289 289 289 289
305 304 304 305 300 297 296 297 296 298 297 297 297 298 297 297 299 294 293 293 294 292 292 293 292 291 291 291 288 287 288 286 286 287 286 286 285 285 285 284 284 283 285 283 281 283 283 284 283 283 284 284 283 284 284 287 288 289 289 289 289 289 289 289 288 288 288 289 289 289 289 289 288 288
307 304 302 300 300 299 300 300 298 295 295 295 295 295 295 295 296 297 296 294 292 291 291 291 291 291 291 293 289 288 287 287 287 287 286 285 285 285 286 285 284 282 283 281 280 282 282 282 282 282 282 282 282 284 286 287 287 288 288 288 288 288 288 288 287 287 288 288 289 289 288 288 288 287
304 302 301 299 296 299 292 293 296 296 294 292 293 293 293 293 295 296 296 296 296 295 292 291 292 293 292 292 289 289 289 288 287 287 286 286 286 287 286 286 283 277 280 280 279 280 281 281 282 280 281 282 282 283 286 287 287 288 288 288 288 288 287 287 287 288 288 288 288 288 288 287 287 286
303 301 300 298 296 294 292 293 294 294 294 293 293 293 294 295 292 292 293 292 292 293 294 293 292 293 293 292 290 290 289 288 287 286 286 286 286 286 285 281 280 278 280 281 280 279 281 281 280 279 281 281 280 279 283 286 286 287 287 287 287 287 287 287 287 287 288 288 288 288 287 287 286 286
302 301 300 299 298 296 294 294 294 294 294 293 293 293 292 294 293 292 292 293 293 292 293 293 294 292 292 290 289 290 290 289 288 288 286 286 285 283 281 280 280 278 279 279 279 278 281 277 279 279 280 279 279 280 284 285 286 286 286 286 287 287 287 287 287 287 287 287 287 287 286 286 286 285
299 298 298 297 297 297 295 293 293 295 296 293 290 290 290 290 291 291 291 292 292 292 291 290 289 288 289 290 289 289 289 288 287 286 285 285 283 282 281 280 281 281 278 278 279 277 280 278 278 280 280 278 278 279 279 284 284 284 285 285 286 286 286 286 286 287 287 287 287 286 286 285 285 284
296 296 297 297 297 296 296 293 293 295 294 291 289 289 289 289 288 288 287 289 289 289 289 290 290 291 291 291 292 292 292 289 287 286 284 281 283 281 280 281 281 281 278 277 278 278 278 279 278 277 279 279 279 278 278 276 281 281 282 283 284 285 285 286 286 286 287 286 286 286 285 285 284 284
294 294 291 292 296 295 295 293 293 294 293 291 289 288 288 287 287 287 285 286 287 288 288 288 288 289 290 290 291 292 292 291 288 285 283 283 283 281 281 280 282 281 277 278 278 277 277 277 277 276 277 279 278 278 276 276 276 280 281 282 283 283 284 285 285 286 285 285 285 284 284 284 283 281
292 292 289 289 292 294 294 293 293 294 293 291 289 289 288 288 287 288 285 286 285 285 284 285 285 286 286 287 287 288 290 289 287 284 283 285 283 282 282 281 281 279 278 275 278 276 278 276 278 276 275 275 276 273 275 276 275 276 276 277 276 282 281 282 282 283 283 283 283 283 283 283 283 279
290 290 291 290 292 294 294 293 293 293 293 292 290 290 289 289 288 288 286 286 286 285 285 285 285 285 286 286 286 285 284 284 284 282 282 283 283 281 281 281 280 279 277 276 278 277 278 277 276 276 276 272 272 275 275 276 275 276 275 275 275 279 280 280 280 281 281 281 281 282 282 282 282 278
291 290 291 291 291 293 293 292 292 292 292 291 289 290 290 291 290 287 286 285 285 285 285 285 285 285 285 285 285 285 284 283 282 282 281 280 281 281 280 280 279 278 277 277 281 277 277 277 274 275 274 275 274 274 275 276 277 276 275 274 273 273 273 273 276 274 279 279 280 281 281 281 281 279
292 293 292 291 290 291 291 292 292 292 292 291 289 290 291 290 289 286 286 286 285 285 285 285 285 284 284 284 284 284 284 284 283 281 280 280 280 280 280 279 279 278 276 277 282 277 276 276 274 274 274 274 273 275 273 274 275 273 274 273 272 273 272 272 272 272 272 274 275 277 278 280 280 280
293 293 292 291 288 290 290 291 292 292 291 289 289 290 290 289 288 286 286 285 285 285 285 284 284 284 284 283 283 284 283 283 282 282 280 279 279 280 280 280 279 278 278 278 279 277 275 275 276 272 272 273 272 273 273 271 272 275 275 274 273 274 273 273 273 273 274 273 274 278 278 278 279 279
295 294 293 290 289 289 290 291 291 291 290 288 290 289 288 287 286 285 285 285 285 285 284 284 283 283 284 283 283 283 283 282 280 279 278 278 279 279 278 278 278 278 277 276 275 275 275 275 275 276 275 274 273 272 272 275 275 275 274 276 275 274 273 275 275 275 274 274 273 274 273 273 274 274
295 292 292 290 289 289 289 290 290 290 288 289 289 288 286 285 285 285 285 285 285 284 283 284 283 283 283 282 281 280 280 279 279 278 278 278 278 278 278 278 278 278 277 275 276 277 277 277 276 277 276 276 274 274 273 273 274 273 274 273 272 274 274 275 274 274 274 274 274 274 273 273 272 273
291 291 290 289 288 288 288 288 287 286 286 287 286 285 284 285 285 285 285 284 284 283 283 283 282 281 280 279 279 279 279 279 278 278 277 277 277 277 277 277 276 273 273 274 276 276 277 277 277 276 275 275 275 273 274 273 272 273 274 273 272 273 274 273 273 274 274 273 274 273 273 273 273 273
289 287 287 287 287 287 287 287 286 286 285 285 284 284 284 285 285 285 284 284 284 283 283 282 281 280 279 279 278 279 279 278 279 279 279 278 277 277 277 276 275 273 272 272 273 273 273 273 275 275 273 273 274 274 273 273 271 272 272 273 273 269 272 273 274 273 274 274 273 272 273 273 273 274
287 286 286 286 286 286 286 286 286 285 285 284 283 283 284 284 284 284 284 284 284 283 282 280 279 278 278 278 279 279 278 277 277 277 278 277 276 276 274 274 274 273 272 271 272 272 274 271 272 275 274 273 271 272 273 273 271 271 271 272 272 272 272 272 272 273 274 273 272 271 271 271 271 272
286 286 285 285 285 285 285 285 284 284 284 283 283 283 283 283 282 283 283 282 281 281 280 279 278 278 279 278 279 278 277 277 277 277 277 277 276 275 274 273 273 272 271 271 273 272 271 270 272 271 270 269 270 271 271 269 270 271 270 270 271 271 272 273 273 272 273 271 270 270 270 270 270 272
285 285 285 285 285 285 285 284 284 283 283 283 282 282 282 282 282 282 282 282 281 280 280 280 279 278 278 277 277 277 276 276 276 277 277 275 275 274 273 272 273 273 273 273 273 273 272 270 269 270 269 270 269 270 270 269 268 269 270 270 271 270 272 272 272 273 272 271 270 268 269 269 270 271
286 285 285 285 285 284 285 284 284 283 283 282 281 281 281 282 282 282 282 281 281 280 280 279 279 279 278 277 277 277 276 275 275 276 276 276 275 274 274 273 274 274 274 274 273 272 271 271 269 269 269 269 268 268 273 269 265 267 267 269 270 270 270 271 271 271 271 271 270 269 268 269 269 271
286 286 285 284 284 284 284 283 283 283 282 282 282 281 281 281 282 282 281 281 280 280 279 279 278 278 278 277 277 277 276 275 275 274 274 274 274 274 274 274 274 274 274 273 271 271 270 270 269 267 266 267 267 264 265 274 272 267 268 269 271 271 271 271 271 271 271 270 271 269 267 267 268 270
286 286 286 284 284 283 283 283 283 282 282 282 281 281 281 281 281 281 281 281 280 279 279 279 278 278 277 277 277 276 275 275 274 274 274 274 274 274 273 273 273 273 273 272 272 271 270 269 270 268 267 267 265 265 266 271 274 276 271 270 271 271 270 269 270 269 270 270 270 270 269 268 268 269
286 285 285 284 283 283 283 283 282 282 281 281 280 280 280 280 280 280 280 279 279 278 278 278 277 277 277 276 275 275 275 275 275 274 274 274 273 273 273 273 273 273 273 273 272 271 270 269 269 270 269 267 265 266 266 268 268 269 275 270 269 270 270 269 269 269 269 271 270 270 270 267 266 265
286 285 284 283 283 283 283 282 281 281 281 280 280 279 279 278 277 276 277 277 277 277 277 277 276 276 276 275 275 275 274 274 273 273 273 274 274 273 273 272 272 273 272 270 272 271 271 270 270 270 270 268 267 267 268 267 266 267 271 275 270 269 270 269 268 268 269 269 269 270 271 271 272 274
285 284 284 283 283 283 282 282 281 281 280 280 279 279 278 276 276 276 276 276 276 277 276 276 276 276 275 276 275 275 274 273 273 273 273 274 273 273 272 273 272 272 271 270 269 270 270 269 270 270 270 270 270 270 270 269 268 270 270 273 275 272 270 269 268 268 268 269 270 269 268 267 262 264
283 283 283 283 282 282 282 281 281 280 280 280 279 278 277 276 276 276 276 276 276 276 275 275 275 275 275 275 275 274 273 273 273 273 273 273 273 272 272 272 271 271 269 269 269 268 269 270 270 273 270 267 267 268 267 267 265 264 264 266 273 273 273 273 268 268 268 270 270 269 267 265 263 263
283 282 282 282 281 281 281 280 280 279 279 278 277 277 276 276 276 277 276 276 276 275 275 274 275 275 274 274 274 274 273 273 272 272 272 272 271 271 271 271 269 270 269 268 269 270 270 270 270 268 266 266 266 265 264 266 264 264 265 266 267 272 272 272 273 273 269 270 268 266 265 264 267 267
282 282 281 280 280 280 280 279 279 279 278 278 277 277 276 276 276 275 275 275 275 275 275 274 274 274 274 274 274 273 273 273 272 272 272 271 271 270 269 269 269 269 269 269 270 270 270 269 267 266 266 265 266 267 264 265 265 265 265 265 265 265 266 271 272 274 274 274 273 271 268 267 265 263
282 282 281 280 279 279 279 279 278 278 278 277 277 277 276 276 275 275 275 275 274 274 274 274 274 273 273 273 273 273 272 272 272 271 271 270 270 270 270 270 270 269 269 269 269 269 269 268 267 266 264 263 265 264 264 264 264 265 265 265 264 262 263 265 269 273 274 274 273 272 273 273 273 273
280 279 279 279 278 278 278 278 277 277 277 276 276 275 275 275 274 274 274 274 273 273 273 273 272 272 272 272 271 271 271 272 271 270 270 270 270 270 269 269 268 268 268 268 267 266 267 266 267 266 265 264 265 264 265 265 264 264 264 263 261 262 264 265 266 267 268 268 273 274 274 274 273 273
Wind_Speed
11 11 13 12 11 11 9 8 9 9 8 8 8 8 9 7 9 7 6 7 8 5 9 7 7 10 8 8 6 7 8 8 12 9 10 10 9 16 19 18 17 17 18 17 18 18 18 17 16 16 15 14 14 15 15 14 13 13 13 13 14 14 14 14 13 13 13 13 14 14 16 16 17 18
10 10 10 10 10 10 9 8 8 8 9 8 8 7 7 7 10 8 9 7 8 5 6 8 4 6 7 5 5 5 6 11 13 10 11 11 11 16 19 18 18 17 17 17 17 17 17 17 17 16 15 14 14 15 15 15 14 14 14 15 15 15 15 14 14 13 13 14 14 15 16 17 17 18
9 10 11 11 11 10 10 9 9 8 8 8 6 6 6 8 9 9 6 8 3 6 7 7 6 4 5 5 4 3 3 7 11 9 10 11 13 14 16 20 17 16 16 15 15 16 17 17 17 16 15 14 14 15 15 15 14 15 15 15 15 15 15 15 14 13 14 14 15 15 16 17 17 18
10 11 11 12 11 10 8 8 9 9 8 7 7 7 7 7 8 7 7 10 6 4 4 4 2 3 4 5 6 6 5 7 14 9 10 11 11 9 8 16 17 14 14 14 14 15 15 15 16 16 15 15 15 15 16 16 16 16 16 15 16 16 15 15 14 14 14 15 16 15 15 16 17 18
11 11 11 11 12 10 11 9 9 9 9 8 8 8 8 9 8 8 8 8 7 2 1 1 3 3 7 4 7 8 8 7 9 10 7 7 7 6 5 6 11 13 12 13 14 14 14 14 14 14 14 14 15 15 16 16 15 15 15 14 15 15 15 15 15 15 16 16 15 15 16 16 16 17
11 10 11 12 11 10 11 9 10 10 9 10 9 9 9 8 7 7 8 8 8 9 2 2 3 4 5 5 6 8 9 9 7 9 5 4 5 5 5 5 7 14 14 13 13 14 14 13 13 13 12 13 13 13 14 15 15 15 14 15 15 15 15 16 15 15 15 16 16 16 16 16 17 17
10 11 12 12 12 10 11 11 10 9 10 9 10 10 8 9 8 8 9 8 9 8 6 6 6 6 6 7 6 8 5 4 5 6 6 6 4 5 6 7 5 10 15 16 15 15 14 14 14 13 13 13 13 14 14 15 14 14 15 15 15 15 15 15 16 16 16 16 16 16 16 18 18 18
11 12 11 11 11 10 11 11 10 10 10 10 10 10 9 9 9 8 8 9 8 7 7 3 7 6 6 3 1 2 3 4 5 5 3 3 5 5 6 6 5 6 12 14 16 16 15 15 14 14 14 13 13 14 15 15 15 15 15 15 15 15 15 16 16 16 16 17 17 17 18 18 19 19
12 12 13 12 11 11 12 11 11 10 11 9 9 9 9 8 8 7 8 8 6 6 7 4 1 2 2 2 2 3 4 2 2 2 5 6 7 7 7 5 5 6 8 12 14 14 15 15 15 14 14 14 14 15 15 15 15 15 15 15 15 15 15 15 15 16 16 16 17 17 18 19 19 19
12 13 12 11 11 12 12 11 10 10 11 10 10 10 9 8 7 8 6 5 6 6 7 6 4 2 4 2 2 2 3 4 2 3 4 4 5 6 7 7 6 6 6 5 6 9 11 14 15 14 14 15 15 16 15 15 15 16 16 17 16 15 15 15 15 16 16 17 17 18 18 19 19 19
12 12 12 11 11 12 12 11 11 9 8 9 10 11 10 8 7 7 7 6 6 6 5 4 5 5 2 3 3 2 3 2 4 5 3 6 6 6 8 7 5 5 7 8 10 9 8 8 8 12 15 16 16 16 16 16 17 17 17 17 17 16 15 15 15 15 16 16 17 18 18 18 19 19
11 11 11 11 11 12 11 11 10 10 10 8 9 8 7 6 7 7 6 6 7 7 5 7 5 4 4 4 3 4 5 3 4 7 7 7 5 7 7 7 5 4 6 6 4 6 7 7 8 10 11 14 16 17 16 17 16 16 17 17 17 16 15 15 16 16 16 16 17 18 18 19 19 19
10 11 12 11 10 11 13 16 15 14 13 10 9 7 7 7 8 6 5 6 7 6 6 5 4 5 5 5 6 5 7 10 10 5 6 6 4 3 4 5 6 5 4 4 4 4 6 5 6 5 7 8 11 13 16 12 17 18 17 18 18 17 16 16 16 16 16 15 16 17 18 19 19 19
9 11 10 10 14 15 16 17 17 17 16 15 12 10 9 9 8 7 7 7 7 7 7 7 7 6 7 7 9 9 8 5 2 5 7 8 5 3 4 3 4 6 5 4 5 5 4 5 4 5 6 5 7 6 7 7 8 11 16 17 16 16 16 16 15 15 15 15 16 16 17 18 19 19
10 9 8 7 9 12 13 14 16 15 15 15 14 12 14 13 13 9 9 8 9 8 7 6 7 7 8 8 9 10 8 6 7 5 6 5 3 4 4 5 1 2 5 5 4 4 4 6 6 5 6 4 4 4 6 8 11 13 13 13 14 14 15 15 14 14 13 14 15 16 17 18 18 19
9 9 9 7 7 7 9 9 10 12 14 14 13 12 14 15 15 14 13 10 7 7 7 7 8 8 9 8 8 8 7 7 6 6 4 5 5 5 5 4 3 1 3 4 3 5 2 4 5 5 4 4 4 4 6 9 11 13 14 13 13 13 13 13 12 12 12 14 15 16 17 18 18 19
8 8 8 8 7 7 11 8 7 7 8 10 13 11 13 13 14 12 12 11 11 9 7 8 7 9 7 6 7 9 9 5 6 5 4 5 5 5 5 5 2 1 1 3 3 3 3 5 4 4 3 4 3 3 6 11 13 13 13 12 12 12 11 11 11 11 12 13 14 16 17 17 18 18
9 9 9 9 8 6 6 6 7 7 7 7 8 7 7 7 9 9 10 10 10 9 8 8 8 6 5 6 4 7 7 7 7 7 6 5 5 6 5 1 3 1 2 4 3 2 3 4 3 3 1 4 2 3 5 9 10 11 11 11 10 10 9 9 10 11 12 13 14 15 16 17 17 18
9 9 10 9 9 8 9 8 10 9 9 9 8 9 7 7 7 7 6 6 6 5 4 5 4 3 4 3 4 5 7 8 5 6 4 5 4 2 3 1 3 2 2 1 2 3 1 1 1 3 3 3 3 3 5 8 8 8 8 8 8 7 8 9 10 11 12 13 14 15 15 16 17 18
7 7 8 8 8 8 9 11 15 12 10 9 9 9 7 5 5 5 4 6 5 4 3 3 4 5 5 6 6 5 5 3 5 6 5 5 4 4 3 3 3 3 2 3 3 2 1 2 1 0 3 2 2 2 1 2 4 5 6 6 5 6 7 8 9 10 11 12 13 14 15 16 18 18
6 7 8 8 8 8 9 12 15 14 13 9 10 9 9 7 5 5 4 7 8 7 8 8 9 8 7 6 7 8 8 6 6 5 5 4 4 4 4 4 4 4 3 3 4 1 2 1 1 1 1 1 2 1 2 4 5 5 5 5 5 6 7 8 9 10 11 12 13 14 15 16 17 19
6 7 11 11 9 10 10 12 16 15 13 10 10 9 9 8 7 5 5 4 5 7 8 8 8 8 7 7 6 7 7 10 8 7 6 5 5 4 4 4 4 3 2 3 3 3 2 1 1 0 2 2 0 0 2 1 1 2 2 2 3 5 6 7 9 10 11 11 12 13 15 15 16 10
4 5 7 11 10 10 10 16 16 17 14 9 10 10 10 9 9 8 8 8 8 6 5 4 6 5 6 5 4 4 8 9 7 2 2 6 5 5 4 4 1 2 1 1 1 3 1 3 1 2 3 2 1 1 0 1 0 0 0 1 1 3 4 7 8 9 9 10 11 12 15 15 15 7
5 5 6 8 11 11 12 15 17 16 13 10 8 9 9 9 10 7 9 7 8 7 6 6 5 5 4 4 5 4 3 3 2 2 2 1 2 3 3 3 3 1 1 1 3 1 1 2 1 3 1 1 1 1 2 1 3 0 1 1 2 4 5 6 6 8 9 9 11 13 14 14 13 6
8 8 8 7 11 13 14 16 17 18 16 11 8 9 10 9 6 11 8 9 10 8 8 7 6 6 5 5 5 4 4 3 3 4 3 3 3 2 1 2 2 3 2 1 6 0 1 3 1 1 0 1 1 1 1 1 1 1 3 0 0 3 2 2 3 3 6 9 10 12 11 12 13 10
8 10 9 8 11 14 15 16 18 19 17 14 9 8 8 12 17 11 9 8 8 7 7 7 6 6 5 5 5 5 4 4 4 4 3 3 3 4 4 3 2 2 2 1 7 0 2 1 2 1 1 0 2 1 3 2 2 3 1 2 2 0 1 2 2 3 3 3 3 7 10 14 14 13
9 6 7 7 13 16 16 17 17 16 16 11 8 13 12 12 15 13 9 9 8 8 7 7 7 6 6 6 6 5 5 5 4 4 4 4 4 5 5 6 6 6 4 3 1 2 2 1 3 3 1 1 1 2 3 1 2 4 5 3 3 3 1 0 2 1 3 4 4 11 11 12 13 14
8 8 8 8 15 15 15 16 17 17 15 9 13 15 15 17 14 9 9 8 8 8 7 7 7 7 6 5 6 6 5 5 5 6 5 4 5 6 5 6 7 6 5 3 2 2 2 1 1 2 2 1 0 1 2 3 2 3 3 3 3 3 4 4 4 3 3 4 5 5 5 5 5 6
8 9 14 15 18 17 17 17 16 13 13 13 14 15 16 14 8 9 8 8 8 8 8 7 7 6 5 4 4 6 7 7 6 6 5 5 6 6 6 6 6 4 4 3 2 2 1 1 1 1 0 0 1 1 2 3 3 2 3 4 3 3 4 3 3 4 4 3 3 5 6 6 6 5
10 11 13 15 16 15 14 12 9 8 9 13 15 16 14 8 8 8 8 8 8 8 8 8 8 7 6 6 6 7 7 6 5 5 5 5 4 4 5 5 5 3 3 2 3 2 2 1 1 1 1 1 1 1 2 2 3 2 3 2 4 4 2 3 3 3 4 4 5 5 6 6 6 6
5 7 8 8 10 9 12 11 11 11 13 11 9 8 7 6 7 7 7 8 8 8 8 7 7 6 6 7 7 6 5 5 5 4 5 5 5 4 4 5 5 3 2 1 2 2 1 2 2 3 1 0 0 1 0 2 3 2 2 2 3 4 4 4 3 3 2 4 4 5 5 6 5 5
6 7 8 9 7 8 7 7 7 7 7 7 8 8 7 6 5 6 8 6 4 5 6 7 8 7 7 7 6 6 6 5 4 3 4 5 5 4 3 4 4 5 4 2 2 2 2 1 1 1 4 3 2 2 1 1 2 2 2 2 2 2 3 3 3 3 4 5 4 5 6 5 6 5
6 7 7 8 8 8 9 8 7 7 7 6 7 8 6 5 7 7 7 7 7 7 8 9 8 8 7 7 6 6 6 5 5 4 5 5 5 4 2 3 5 4 5 4 5 3 2 2 1 0 1 2 2 0 1 1 3 2 1 2 1 2 2 3 3 3 3 4 5 6 5 5 6 6
8 8 7 7 8 9 8 8 8 8 8 7 7 5 7 8 7 7 7 6 7 7 8 8 8 8 8 7 6 6 7 6 5 4 5 5 4 4 4 4 4 4 3 3 3 5 5 4 2 1 1 1 2 4 4 3 2 2 0 2 1 1 3 3 4 5 4 4 4 4 6 6 6 5
8 9 9 9 9 9 10 10 10 10 10 9 7 7 8 7 8 8 7 7 8 8 8 8 7 7 7 7 7 7 7 8 6 5 4 4 4 4 5 5 5 5 4 3 4 3 3 1 3 0 1 3 1 3 8 5 2 2 2 4 2 3 2 3 4 4 4 3 2 4 5 5 5 5
9 9 10 10 10 10 10 10 9 10 10 10 10 10 10 9 8 8 8 8 8 8 8 8 8 7 7 7 7 7 8 8 7 6 6 5 5 5 4 4 4 4 4 3 3 3 4 0 2 1 1 1 0 1 1 10 6 2 1 1 2 2 3 3 4 4 4 3 3 2 4 5 6 5
10 10 10 10 10 10 11 10 10 10 9 10 10 10 10 10 9 7 7 9 8 7 7 7 7 7 8 8 7 7 7 8 7 7 6 6 5 5 5 5 4 3 2 2 4 1 3 1 0 2 0 0 1 0 1 2 5 7 3 1 2 3 2 3 4 3 3 3 3 2 2 5 5 5
9 9 9 9 10 10 9 9 10 10 10 9 9 9 7 7 7 7 8 8 7 7 8 7 7 8 7 7 8 8 7 6 6 6 6 6 6 5 5 4 5 5 4 2 3 1 0 2 1 0 2 2 1 2 1 3 1 2 4 1 1 3 2 2 3 3 4 4 3 1 1 4 5 4
10 11 11 10 10 9 9 10 10 10 9 9 9 9 9 8 7 6 8 7 7 8 8 8 8 8 8 8 7 8 8 7 7 6 6 5 5 5 6 5 4 4 4 2 3 2 1 1 0 1 1 1 1 0 1 1 3 2 6 9 1 1 3 2 3 3 4 4 3 4 4 3 4 7
8 7 8 8 8 9 9 9 10 10 10 10 9 9 9 10 8 8 8 8 8 7 7 8 9 8 7 7 7 7 6 6 6 6 6 5 5 4 3 4 4 3 5 4 2 2 3 1 1 1 2 2 2 2 0 2 3 6 6 4 4 3 1 1 2 3 3 3 3 5 4 3 3 4
8 9 8 8 8 7 8 8 9 8 8 8 8 8 8 10 11 9 8 8 8 8 8 8 8 7 7 7 7 7 7 6 5 5 5 5 5 5 5 5 4 4 4 3 4 1 1 4 4 4 2 0 1 0 2 2 2 2 2 4 7 5 5 6 1 2 2 3 4 3 4 4 3 3
9 9 8 7 9 9 8 7 7 7 8 8 9 9 9 9 8 12 10 10 8 8 8 8 8 7 7 6 6 6 6 6 6 6 5 5 5 5 6 4 3 3 5 3 4 3 5 3 2 2 0 1 1 1 2 2 2 2 2 2 3 6 8 8 8 6 3 4 2 1 2 4 6 3
9 8 8 7 8 8 8 8 8 7 8 8 9 9 10 9 9 10 8 8 7 8 7 7 7 7 6 6 5 5 6 6 6 6 6 5 5 5 5 4 4 3 4 3 3 3 4 3 1 1 1 2 2 1 2 2 2 1 1 2 3 4 5 7 7 7 1 6 5 2 0 1 0 2
7 7 7 8 8 9 9 9 8 8 9 9 9 9 9 10 9 9 8 8 8 7 7 7 7 7 7 6 6 6 5 5 6 6 6 5 5 5 4 5 5 4 4 4 3 4 3 2 1 2 0 1 1 0 1 1 1 2 1 1 2 3 5 5 5 2 7 5 5 0 2 3 4 5
5 6 7 8 8 8 8 8 9 9 9 9 8 9 8 8 8 8 7 7 7 7 7 7 7 7 7 6 6 6 6 6 6 5 5 5 5 5 4 4 5 5 4 4 4 2 4 2 1 1 1 2 1 1 1 1 1 1 2 1 2 3 1 2 3 4 2 2 4 7 3 1 2 3
Wind_Direction
226 228 227 230 232 232 234 230 226 226 226 228 228 228 229 222 237 224 224 215 226 214 206 225 211 199 199 201 200 193 192 174 161 177 190 195 194 200 204 206 212 216 219 223 225 226 227 231 232 236 239 244 250 254 255 258 261 265 268 272 274 275 278 281 285 288 291 294 297 300 303 307 309 311
221 223 225 226 232 230 232 235 234 227 228 231 226 223 219 220 232 229 245 245 189 204 196 210 214 179 196 193 187 190 190 165 169 183 193 201 208 199 198 204 210 212 217 222 224 225 229 233 234 237 240 245 252 255 257 260 263 265 269 272 275 277 279 282 284 288 291 292 293 297 302 306 307 309
215 216 220 221 228 225 229 230 234 234 227 231 231 230 222 223 219 227 228 257 212 192 183 209 217 162 179 162 145 142 170 171 179 187 201 207 213 196 197 203 209 211 215 221 225 228 230 233 235 238 241 245 250 253 257 261 266 268 270 273 276 278 280 282 284 287 287 287 289 295 301 303 305 308
215 214 216 218 223 221 223 221 223 225 226 223 226 225 225 220 220 216 225 238 237 213 187 175 141 119 136 132 159 166 173 175 189 202 208 211 203 187 199 205 209 212 215 217 222 228 233 237 239 242 244 245 249 253 257 260 264 267 268 270 273 276 278 279 280 282 282 283 288 293 297 299 301 304
213 214 216 217 222 218 221 220 223 226 225 221 225 223 220 223 213 209 221 231 241 215 344 110 162 139 133 168 177 175 186 188 202 209 213 199 194 196 194 196 210 216 219 219 221 225 230 234 240 244 245 246 252 258 261 263 264 266 268 271 274 276 277 277 277 277 281 286 288 289 292 295 297 301
212 213 216 219 221 219 223 216 219 218 219 218 221 218 215 218 208 199 210 227 230 230 141 195 156 163 182 185 188 185 185 201 190 202 197 203 203 202 204 210 205 206 220 224 226 228 229 233 237 240 241 245 251 256 259 261 262 262 263 266 268 270 272 274 276 279 282 282 283 286 290 293 296 299
213 217 217 220 218 217 220 218 221 216 220 217 221 220 212 219 213 203 207 213 223 219 219 182 176 188 186 202 194 199 202 181 168 178 193 199 200 211 213 216 222 190 205 218 224 228 231 233 233 233 235 239 245 249 253 255 256 258 262 264 266 267 269 271 273 274 277 279 282 285 287 292 296 300
216 219 220 221 216 214 218 218 218 218 217 215 217 219 215 212 211 208 204 212 219 212 214 206 198 191 173 210 58 113 88 143 172 193 178 185 211 213 218 221 219 197 197 210 217 224 230 233 234 233 234 238 242 245 248 250 252 255 257 259 261 263 266 269 271 274 276 279 280 283 288 292 296 301
216 220 222 221 214 215 223 221 220 215 214 212 212 216 215 209 209 210 204 208 201 193 209 198 190 114 128 85 98 136 143 114 122 132 201 210 218 223 225 226 224 219 198 207 213 220 227 232 236 236 237 239 241 244 246 249 249 251 252 254 256 259 262 265 267 270 273 275 278 282 286 291 296 300
216 220 220 218 214 216 219 221 218 214 212 211 212 214 213 206 203 205 203 188 189 198 210 175 168 162 172 136 134 161 134 143 146 202 227 236 221 217 228 224 216 215 212 200 212 221 226 232 236 238 239 239 239 242 245 247 249 249 249 250 252 255 259 263 265 267 270 273 276 280 285 291 295 299
218 219 220 219 215 218 220 222 220 217 215 212 215 211 209 199 195 195 189 180 186 195 197 194 179 159 156 139 143 150 164 158 185 191 190 235 222 222 223 232 213 201 214 217 214 211 207 215 222 234 238 241 241 243 245 247 246 247 247 249 252 254 256 260 262 264 268 271 275 280 285 290 295 299
217 221 223 222 217 216 217 218 220 212 211 206 213 211 202 187 184 192 182 178 183 189 195 197 176 151 143 144 95 121 153 183 237 218 210 227 210 215 216 219 213 191 196 217 212 215 218 229 234 238 241 240 241 243 247 247 248 247 249 250 251 251 254 257 260 264 267 270 273 280 286 291 296 300
219 220 220 218 218 216 215 214 213 211 206 199 207 205 183 180 182 181 174 176 179 187 184 191 152 147 164 178 154 159 184 197 210 184 197 235 233 206 203 219 209 201 190 212 210 210 191 212 222 223 232 237 236 243 241 245 246 247 250 252 252 251 252 254 257 262 266 269 274 281 287 293 298 302
219 221 220 217 213 214 215 216 215 214 207 201 201 191 181 177 178 180 179 182 187 179 185 192 174 176 196 191 195 194 207 197 182 163 189 217 227 232 254 238 192 197 192 205 224 224 185 185 213 205 223 227 212 224 225 232 233 241 247 250 249 248 248 252 257 262 266 270 278 284 288 295 300 303
215 219 219 222 216 217 219 218 217 213 207 202 204 189 184 182 179 179 184 193 182 183 190 179 178 195 205 205 188 205 195 185 195 194 188 205 181 206 218 249 94 154 172 201 235 254 180 173 214 221 226 219 215 217 231 236 235 235 241 244 244 245 248 252 259 265 270 274 281 285 292 298 302 304
213 213 214 218 215 212 213 207 211 212 205 198 195 186 187 190 192 184 179 177 178 180 181 185 198 190 211 203 182 195 184 194 190 200 182 192 197 205 218 233 231 175 164 164 195 254 149 174 203 232 231 206 210 217 224 238 243 250 252 249 245 247 251 257 264 269 273 279 283 290 296 299 303 305
211 207 209 214 212 214 211 209 200 190 193 192 186 181 187 193 192 193 196 185 181 175 179 188 196 200 194 197 203 190 194 167 178 178 189 193 202 212 221 229 168 212 225 143 184 243 193 164 199 230 223 189 200 200 222 242 253 255 255 253 253 256 260 264 269 272 279 283 288 293 297 301 304 307
205 204 204 205 210 204 195 196 190 181 172 166 166 167 178 190 201 198 192 186 175 174 184 182 198 197 172 204 189 181 164 159 177 173 202 189 198 205 214 104 96 152 206 179 160 256 221 167 183 232 203 143 168 195 228 243 251 257 259 263 267 268 266 268 274 280 283 287 292 295 298 302 305 308
205 202 201 200 202 193 193 192 185 176 170 166 172 172 181 187 181 185 189 185 179 177 181 187 178 160 166 147 122 153 164 175 172 177 184 181 178 138 97 114 131 132 205 239 134 240 110 49 174 222 169 138 196 213 236 254 266 276 281 282 280 275 273 275 281 285 287 290 293 297 300 303 306 308
205 199 194 198 201 192 195 193 186 182 167 167 168 172 174 172 163 174 166 159 151 158 163 142 122 101 98 100 127 138 142 127 106 92 83 84 104 132 165 222 181 181 162 194 175 218 211 142 153 245 112 139 267 252 222 278 334 333 318 303 293 288 283 282 284 287 290 295 299 300 301 303 305 307
203 200 193 193 196 190 199 185 183 182 163 164 170 169 169 169 163 161 120 107 106 106 100 94 94 95 94 98 113 134 142 150 138 119 119 162 157 158 191 218 189 195 148 213 201 165 263 159 121 327 304 217 254 335 60 59 12 328 321 313 302 294 291 289 289 293 296 301 303 302 302 303 306 308
203 202 198 194 188 188 193 178 182 179 168 166 168 164 159 165 177 170 142 123 101 96 95 98 101 105 112 115 125 139 144 142 145 149 182 175 159 184 191 204 191 120 139 167 182 145 213 134 127 327 275 234 89 84 66 48 29 343 327 332 309 303 305 307 309 313 316 316 311 305 302 302 305 309
193 194 199 202 196 191 185 177 182 181 177 170 169 168 165 178 190 186 161 152 143 143 130 119 111 97 112 123 126 135 137 147 154 148 125 146 165 182 195 195 176 158 167 238 225 152 129 95 98 113 5 1 98 25 313 199 163 193 56 31 11 360 350 333 325 318 320 317 311 305 302 302 306 307
195 192 194 203 203 191 176 176 177 182 186 174 169 164 178 179 196 165 159 157 146 146 145 138 130 128 133 120 105 110 114 122 114 71 56 125 177 198 194 194 176 178 119 221 157 166 95 120 105 69 72 118 301 171 198 223 157 182 110 66 10 16 5 350 343 340 331 323 311 307 307 308 312 309
190 192 200 198 192 181 174 176 179 180 184 175 168 176 189 197 152 137 142 142 138 139 137 133 130 128 127 129 122 122 129 129 116 90 77 72 49 62 99 151 138 90 83 174 172 325 133 99 124 109 206 161 254 332 304 48 345 111 92 61 35 343 19 340 337 325 328 320 316 313 312 314 314 309
201 198 189 188 186 182 177 179 179 180 180 169 163 179 150 129 136 142 134 136 137 140 143 145 142 140 140 145 144 138 132 128 123 118 107 78 72 50 53 61 116 128 152 185 168 47 96 37 97 93 20 143 289 12 336 335 304 63 5 61 30 325 316 317 331 331 334 323 324 317 314 317 318 316
200 187 183 181 179 181 178 178 179 177 173 161 163 150 135 129 128 130 138 142 147 151 152 146 145 146 150 151 148 147 134 131 132 111 91 80 80 76 61 53 53 85 110 113 96 48 73 103 100 114 114 30 297 306 274 279 328 21 355 29 353 326 266 23 326 337 323 322 320 326 330 326 325 322
189 178 179 174 176 181 178 176 174 172 169 170 165 150 138 138 136 134 142 154 157 150 145 147 147 153 152 145 150 154 138 128 108 99 97 85 81 83 77 71 66 66 78 89 87 62 69 88 38 81 119 132 342 288 291 317 332 348 331 334 310 294 348 337 323 337 347 346 332 326 323 322 317 320
193 187 177 171 174 177 173 170 163 161 159 156 154 143 139 141 141 146 154 156 153 152 156 154 146 146 143 128 112 104 106 108 104 98 85 75 73 79 82 79 75 65 54 58 62 71 81 92 112 70 36 138 169 268 284 301 317 302 324 319 306 338 313 321 353 348 330 318 321 331 328 325 319 320
179 174 172 169 167 167 164 152 152 154 157 151 147 146 145 147 150 157 155 156 157 157 154 152 148 138 119 116 122 116 119 123 124 126 119 113 102 112 116 107 86 69 57 52 71 71 72 94 121 113 141 231 195 267 284 283 292 315 305 311 319 311 330 18 327 325 331 342 349 334 323 317 312 313
152 142 143 152 155 154 158 149 140 138 141 140 143 150 153 150 151 155 163 163 156 152 147 138 125 119 112 112 117 129 126 112 116 126 132 120 123 128 134 126 123 106 78 65 85 79 83 98 104 128 128 146 306 242 301 315 290 309 316 330 326 327 327 320 336 328 349 352 339 319 319 323 314 312
130 129 125 126 129 134 131 130 133 139 146 146 150 152 152 147 139 126 119 113 118 118 116 110 112 114 130 132 129 121 110 111 107 110 113 119 119 117 133 132 131 130 141 138 132 119 103 114 129 178 160 180 197 301 351 278 268 276 311 315 320 311 313 335 338 345 11 348 325 333 327 328 312 306
115 126 140 149 154 163 160 155 151 150 148 149 152 148 142 121 132 139 146 144 139 136 131 134 137 139 133 127 125 124 121 123 122 110 108 110 123 131 140 123 118 133 142 154 159 160 146 139 134 101 32 22 26 100 190 294 302 310 298 287 306 298 314 339 342 350 2 346 342 334 326 321 310 308
147 162 164 171 169 170 173 165 161 158 154 148 148 144 139 145 149 149 147 143 141 137 134 137 139 140 136 133 135 132 129 125 126 129 131 125 127 139 135 135 135 128 142 156 153 144 147 149 142 155 136 221 216 178 184 193 243 264 281 286 277 33 349 14 348 343 357 339 336 330 327 327 315 323
173 171 175 180 184 182 178 176 174 167 164 161 147 146 153 159 156 156 153 149 142 137 135 138 139 138 139 141 146 145 140 137 134 133 128 130 141 146 147 147 150 157 161 154 148 144 118 162 129 117 220 176 208 283 188 163 164 268 6 313 52 22 351 334 328 332 324 310 345 334 319 315 329 335
188 186 188 185 185 183 185 184 174 170 165 165 162 156 158 162 163 160 156 147 142 139 140 143 145 145 144 146 146 143 139 137 138 141 145 152 152 148 147 144 135 141 140 151 145 139 124 230 130 137 119 342 35 323 327 193 177 143 207 279 347 354 320 329 329 323 313 343 345 337 322 326 323 332
190 190 192 191 187 184 187 180 177 173 167 161 162 166 165 161 161 155 136 131 136 140 145 142 144 145 142 142 138 135 137 142 145 149 152 153 152 152 146 147 139 131 125 146 126 126 122 156 163 136 128 248 260 296 262 150 235 250 152 304 307 311 360 342 322 313 331 344 326 310 322 307 311 321
198 190 195 195 190 188 187 179 172 172 168 163 159 157 153 144 139 133 131 135 141 141 145 144 141 138 137 139 138 139 142 142 142 147 153 153 152 154 150 146 148 152 155 137 99 95 66 133 158 117 153 208 204 243 234 319 42 319 31 41 3 348 346 330 315 335 333 333 312 323 329 294 289 273
197 192 191 188 187 186 184 179 176 172 165 162 160 160 150 141 131 125 138 138 143 145 146 144 144 142 139 140 138 140 143 145 148 148 146 148 150 151 147 145 142 137 117 128 132 148 157 127 97 153 179 203 214 336 3 245 266 287 319 311 146 96 322 346 332 336 334 319 321 331 300 295 296 323
199 188 191 185 185 183 183 175 177 170 165 166 159 156 151 146 141 141 142 145 149 146 141 138 136 135 136 138 136 131 128 135 140 143 143 146 142 138 132 132 141 131 132 142 152 167 143 175 109 83 32 60 38 7 137 266 258 247 237 262 52 54 59 64 333 335 300 318 338 309 304 337 350 319
190 188 187 177 177 177 175 172 169 164 161 155 148 148 144 142 141 144 144 147 144 140 134 131 131 132 133 130 132 135 137 136 133 133 134 129 129 133 145 139 128 137 139 164 141 153 127 86 97 99 108 358 310 353 296 263 278 324 26 359 14 2 346 329 312 235 283 292 290 310 335 327 310 290
191 190 178 167 169 165 161 156 160 159 148 144 143 141 138 135 130 133 135 135 131 126 126 130 131 128 125 126 129 133 136 139 139 133 134 133 140 140 149 140 143 151 147 162 152 141 103 133 92 65 138 150 245 184 255 235 246 291 346 14 349 352 345 323 316 308 249 204 172 307 354 351 340 345
189 186 178 168 158 158 156 152 154 148 141 140 140 137 133 127 125 129 135 137 134 131 132 131 127 125 127 127 127 124 130 131 135 135 135 141 143 148 151 159 150 149 128 134 121 112 109 94 100 144 293 170 200 189 202 254 282 315 349 357 358 329 312 309 322 295 226 48 17 38 94 71 13 342
189 183 176 162 156 156 153 150 147 146 140 139 136 134 130 130 133 137 137 138 136 135 131 130 128 128 129 129 127 123 126 127 128 135 138 141 141 144 143 152 143 142 144 138 128 128 115 125 160 126 81 329 111 131 278 27 320 348 9 334 335 336 316 317 333 40 131 149 145 37 30 355 336 332
167 164 162 154 150 143 143 142 141 142 138 134 135 129 126 124 129 131 131 129 126 126 125 126 126 124 125 126 129 131 130 129 125 125 130 141 143 144 139 135 131 142 138 140 135 143 136 151 209 130 154 198 164 169 250 209 204 243 298 338 300 294 309 334 336 343 27 19 39 49 22 230 315 356